FW4468 Weather Reports


time (UTC)temp
F
wind
direction
speed
knots
gust
knots
rain 1hr
in
rain 24hr
in
rain mn
in
humidity
%
barometer
mb
20260831221526 75 51 2.6 6.1 0.00 0.00 0.00 39 1009.2
20260831220028 74 243 0.9 7.0 0.00 0.00 0.00 39 1009.5
20260831214523 75 316 1.7 7.0 0.00 0.00 0.00 38 1009.7
20260831213022 75 242 0.9 10.4 0.00 0.00 0.00 39 1009.9
20260831211532 75 355 2.6 9.6 0.00 0.00 0.00 37 1010.0
20260831210017 74 325 2.6 8.7 0.00 0.00 0.00 39 1010.3
20260831204515 74 49 2.6 9.6 0.00 0.00 0.00 38 1010.5
20260831203012 74 267 2.6 10.4 0.00 0.00 0.00 35 1010.8
20260831201509 74 230 1.7 8.7 0.00 0.00 0.00 39 1010.8
20260831200006 73 179 1.7 9.6 0.00 0.00 0.00 41 1010.9
20260831194503 73 236 2.6 6.1 0.00 0.00 0.00 43 1011.0
20260831193000 71 17 1.7 7.0 0.00 0.00 0.00 44 1011.2
20260831191557 71 173 1.7 7.0 0.00 0.00 0.00 43 1011.4
20260831190108 71 54 1.7 7.8 0.00 0.00 0.00 45 1011.4
20260831184552 70 325 1.7 9.6 0.00 0.00 0.00 48 1011.7
20260831183051 69 57 0.9 5.2 0.00 0.00 0.00 50 1012.1
20260831181552 68 36 1.7 6.1 0.00 0.00 0.00 50 1012.1
20260831180054 68 180 1.7 7.8 0.00 0.00 0.00 51 1012.4
20260831174540 67 113 1.7 9.6 0.00 0.00 0.00 53 1012.5
20260831173038 66 328 0.9 7.0 0.00 0.00 0.00 54 1012.8
20260831171534 66 88 1.7 6.1 0.00 0.00 0.00 56 1012.9
20260831170030 64 138 0.9 7.8 0.00 0.00 0.00 57 1012.7
20260831164528 63 43 0.9 7.0 0.00 0.00 0.00 59 1012.8
20260831163025 62 65 0.9 4.3 0.00 0.00 0.00 63 1012.8
20260831161522 60 295 0.0 6.1 0.00 0.00 0.00 63 1013.0
20260831160016 60 309 0.0 4.3 0.00 0.00 0.00 64 1013.1
20260831154514 59 150 0.0 4.3 0.00 0.00 0.00 65 1013.4
20260831153010 58 325 0.9 5.2 0.00 0.00 0.00 66 1013.3
20260831151608 57 73 0.0 2.6 0.00 0.00 0.00 68 1013.3
20260831150005 56 189 0.0 4.3 0.00 0.00 0.00 74 1013.2
20260831144504 55 53 0.0 2.6 0.00 0.00 0.00 76 1013.3
20260831143004 54 125 0.0 3.5 0.00 0.00 0.00 76 1013.3
20260831141502 54 116 0.0 2.6 0.00 0.00 0.00 76 1013.2
20260831140002 54 96 0.0 2.6 0.00 0.00 0.00 75 1013.2
20260831134501 54 115 0.0 0.9 0.00 0.00 0.00 75 1013.2
20260831133001 54 159 0.0 1.7 0.00 0.00 0.00 74 1013.1
20260831131604 54 271 0.0 1.7 0.00 0.00 0.00 74 1013.1
20260831130059 54 284 0.9 4.3 0.00 0.00 0.00 75 1013.2
20260831124557 54 63 0.9 3.5 0.00 0.00 0.00 76 1013.5
20260831123055 54 154 0.0 2.6 0.00 0.00 0.00 76 1013.5
20260831121554 55 279 0.0 2.6 0.00 0.00 0.00 77 1013.7
20260831120053 55 30 0.0 3.5 0.00 0.00 0.00 78 1013.7
20260831114552 54 243 0.0 2.6 0.00 0.00 0.00 78 1013.9
20260831113052 54 280 0.0 3.5 0.00 0.00 0.00 78 1014.1
20260831111559 54 290 0.0 2.6 0.00 0.00 0.00 78 1014.3
20260831110047 53 126 0.0 1.7 0.00 0.00 0.00 74 1014.2
20260831104548 53 109 0.0 0.9 0.00 0.00 0.00 74 1014.4
20260831103044 54 5 0.0 0.9 0.00 0.00 0.00 74 1014.4
20260831101550 53 254 0.0 0.9 0.00 0.00 0.00 71 1014.5
20260831100040 53 254 0.0 0.9 0.00 0.00 0.00 70 1014.7
20260831094538 54 254 0.0 0.9 0.00 0.00 0.00 70 1015.0
20260831093039 54 254 0.0 1.7 0.00 0.00 0.00 69 1015.2
20260831091551 54 254 0.0 1.7 0.00 0.00 0.00 68 1015.1
20260831090032 54 273 0.0 0.9 0.00 0.00 0.00 68 1015.4
20260831084529 55 273 0.0 0.0 0.00 0.00 0.00 68 1015.5
20260831083028 55 273 0.0 0.9 0.00 0.00 0.00 68 1015.4
20260831081535 56 271 0.0 1.7 0.00 0.00 0.00 67 1015.8
20260831080140 56 271 0.0 0.9 0.00 0.00 0.00 68 1015.9
20260831074524 56 288 0.0 0.9 0.00 0.00 0.00 67 1015.8
20260831073052 56 275 0.0 0.9 0.00 0.00 0.00 67 1015.9
20260831071519 56 275 0.0 0.0 0.00 0.00 0.00 67 1016.0
20260831070017 56 275 0.0 0.9 0.00 0.00 0.00 67 1016.2
20260831064516 56 275 0.0 1.7 0.00 0.00 0.00 67 1016.5
20260831063023 56 59 0.0 0.9 0.00 0.00 0.00 67 1016.5
20260831061513 57 5 0.0 0.0 0.00 0.00 0.00 66 1016.6
20260831060014 57 5 0.0 1.7 0.00 0.00 0.00 65 1016.8
20260831054515 57 9 0.0 0.9 0.00 0.00 0.00 64 1016.8
20260831053011 58 9 0.0 0.0 0.00 0.00 0.00 63 1017.0
20260831051508 58 9 0.0 2.6 0.00 0.00 0.00 63 1017.2
20260831050008 59 276 0.0 0.9 0.00 0.00 0.00 61 1017.3
20260831044508 59 297 0.0 1.7 0.00 0.00 0.00 60 1017.3
20260831043007 60 297 0.0 0.9 0.00 0.00 0.00 59 1017.3
20260831041506 61 297 0.0 1.7 0.00 0.00 0.00 58 1017.4
20260831040006 61 20 0.0 1.7 0.00 0.00 0.00 57 1017.4
20260831034506 61 321 0.0 2.6 0.00 0.00 0.00 57 1017.3
20260831033005 62 67 0.9 2.6 0.00 0.00 0.00 55 1017.2
20260831031504 63 156 0.0 4.3 0.00 0.00 0.00 54 1017.2
20260831030004 63 69 0.0 3.5 0.00 0.00 0.00 53 1017.2
20260831024504 64 227 0.0 2.6 0.00 0.00 0.00 52 1017.2
20260831023002 65 111 0.0 3.5 0.00 0.00 0.00 51 1017.3
20260831021505 66 355 0.9 3.5 0.00 0.00 0.00 49 1017.3
20260831020002 67 16 0.0 3.5 0.00 0.00 0.00 47 1017.5
20260831014500 68 76 0.0 2.6 0.00 0.00 0.00 45 1017.4
20260831013109 68 55 0.0 3.5 0.00 0.00 0.00 44 1017.5
20260831011559 68 71 0.0 4.3 0.00 0.00 0.00 44 1017.5
20260831010121 69 45 0.0 3.5 0.00 0.00 0.00 42 1017.8
20260831004603 69 36 0.9 4.3 0.00 0.00 0.00 43 1017.9
20260831003105 69 165 0.0 1.7 0.00 0.00 0.00 44 1017.9
20260831001554 69 80 0.0 1.7 0.00 0.00 0.00 42 1018.1
20260831000053 70 183 0.0 1.7 0.00 0.00 0.00 42 1017.9
20260830234552 70 154 0.0 4.3 0.00 0.00 0.00 41 1018.1
20260830233051 70 55 0.9 4.3 0.00 0.00 0.00 41 1018.2
20260830231550 70 225 0.9 3.5 0.00 0.00 0.00 42 1018.3
20260830230049 72 355 0.0 3.5 0.00 0.00 0.00 38 1018.3
20260830224548 72 350 0.9 4.3 0.00 0.00 0.00 38 1018.3
20260830223046 73 155 1.7 6.1 0.00 0.00 0.00 39 1018.4